Regional Weather Roundup
Issued by NWS Goodland, KS

Home | Current Version | Previous Version | Graphics & Text | Print | Product List | Glossary On
Versions: 1 2 3 4 5 6 7 8 9 10 11 12 13 14 15 16 17 18 19 20 21 22 23 24 25 26 27 28 29 30 31 32 33 34 35 36 37 38 39 40 41 42 43 44 45 46 47 48 49 50
000
ASUS43 KGLD 271759
RWRGLD

GOODLAND FORECAST AREA HOURLY WEATHER ROUNDUP
NATIONAL WEATHER SERVICE GOODLAND KS
1200 PM MDT MON JUL 27 2015

...OFFICIAL OBSERVATIONS...

CITY           SKY/WX    TMP DP  RH WIND       PRES   REMARKS
GOODLAND KS    MOSUNNY   82  68  62 S21G29    29.90F
HILL CITY KS   SUNNY     89  70  53 S15G24    29.86F
IMPERIAL NEB   MOSUNNY   88  66  48 SE16      29.85F
MCCOOK NEB     MOSUNNY   88  67  49 S17       29.86F
AKRON CO         N/A    N/A N/A N/A MISG      29.90F
BURLINGTON CO  MOSUNNY   85  66  53 S20G26    29.93F
LIMON CO       MOSUNNY   85  53  33 S10       29.97F
$$

...UNOFFICIAL OBSERVATIONS...

CITY           SKY/WX    TMP DP  RH WIND       PRES   REMARKS
COLBY KS       SUNNY     82  73  74 S18       29.92F
LENORA KS        N/A     86  32  14 MISG        N/A
NORTON KS      SUNNY     88  66  48 S13G20    29.87F
SHARON SPRINGS   N/A     84  72  67 N16G24      N/A
KIT CARSON CO    N/A     88  65  45 MISG        N/A
$$



USA.gov is the U.S. government's official web portal to all federal, state and local government web resources and services.